Location: Lombard
(41.8800°N, 88.0080°W)
Time: 03:41:37
(UTC-05:00)

Vanguard 2 Rocket - Pass Details

Date: 28 February 2024
Orbit: 555 x 3307 km, 32.9° (Epoch: 12 April)

Event Time Altitude Azimuth Distance (km) Brightness Sun altitude
Rises 19:42:33 0° 275° (W) 5,890 12.5 -23.4°
Reaches altitude 10° 19:46:54 10° 264° (W) 5,253 11.7 -24.2°
Maximum altitude 19:59:27 27° 214° (SW) 4,686 10.6 -26.4°
Drops below altitude 10° 20:14:26 10° 166° (SSE) 6,240 10.8 -29.1°
Enters shadow 20:19:10 - 158° (SSE) 6,956 11.1 -30.0°
Sets 20:20:24 0° 156° (SSE) 7,152 - -30.2°
